DW4212 La Cabrera ES current weather conditions

sailwx.info

Wind from 222

Air temperature 22.8° C
Dewpoint 8.8° C

Last reported at 2014-Oct-20 12:49 UTC.
Time now 2014-Oct-20 13:11 UTC

Location: N 40°53' W 003°35'.
View on Google Maps.

See reports from other nearby stations

  
Tides and Currents Weather Stations Pressure Air Temp Water Temp Dewpoint Dewpoint Depression Visibility Wind Speed Wind Dir Waves Ship Positions
date/time (UTC)wind fromknots sea level pressurealtimeterstation pressurevisibilityair tempwater tempwave heightnotes
2014-Oct-20 12:49 222 22.8
2014-Oct-20 12:39 113 22.2
2014-Oct-20 12:29 080 22.2
2014-Oct-20 12:19 080 0 gusting 2 22.2
2014-Oct-20 11:59 181 21.7
2014-Oct-20 11:49 181 21.1
2014-Oct-20 11:39 181 21.7
2014-Oct-20 11:29 197 21.1
2014-Oct-20 11:19 197 21.1
2014-Oct-20 11:09 197 0 gusting 3 21.1
2014-Oct-20 10:59 193 21.1
2014-Oct-20 10:49 193 0 gusting 2 20.6
2014-Oct-20 10:39 134 20.0
2014-Oct-20 10:29 126 20.0
2014-Oct-20 10:19 126 20.0
2014-Oct-20 10:09 128 19.4
2014-Oct-20 09:59 094 18.9
2014-Oct-20 09:49 094 18.3
2014-Oct-20 09:39 090 18.3
2014-Oct-20 09:29 090 18.3
2014-Oct-20 09:19 090 17.8
2014-Oct-20 09:09 090 17.2
2014-Oct-20 08:59 090 16.7
2014-Oct-20 08:49 090 16.1
2014-Oct-20 08:39 090 16.1
2014-Oct-20 08:29 090 15.0
2014-Oct-20 07:59 011 13.3
2014-Oct-20 07:49 011 12.8
2014-Oct-20 07:39 011 12.2
2014-Oct-20 07:19 011 11.7
2014-Oct-20 07:09 011 11.7
2014-Oct-20 06:59 011 11.1
2014-Oct-20 06:49 011 11.1
2014-Oct-20 06:39 011 11.1
2014-Oct-20 06:29 011 11.1
2014-Oct-20 06:19 011 11.7
2014-Oct-20 06:10 011 12.2
2014-Oct-20 05:59 011 12.2
2014-Oct-20 05:49 011 12.2
2014-Oct-20 05:39 011 12.8
2014-Oct-20 05:29 011 12.8
2014-Oct-20 05:19 011 12.2
2014-Oct-20 05:09 011 12.2
2014-Oct-20 04:59 011 12.2
2014-Oct-20 04:49 011 12.2
2014-Oct-20 04:39 011 12.2
2014-Oct-20 04:29 011 12.2
2014-Oct-20 04:19 011 12.2
2014-Oct-20 04:09 296 12.2
2014-Oct-20 03:59 296 12.2
2014-Oct-20 03:49 296 12.2
2014-Oct-20 03:39 296 12.2
2014-Oct-20 03:29 296 12.8
2014-Oct-20 03:19 296 12.8
2014-Oct-20 03:09 296 13.3
2014-Oct-20 02:49 296 13.9
2014-Oct-20 02:39 296 14.4
2014-Oct-20 02:29 296 14.4
2014-Oct-20 02:19 296 14.4
2014-Oct-20 02:09 296 14.4
2014-Oct-20 01:59 296 14.4
2014-Oct-20 01:49 296 13.9
2014-Oct-20 01:39 296 13.9
2014-Oct-20 01:29 296 13.9
2014-Oct-20 01:19 296 14.4
2014-Oct-20 01:09 296 14.4
2014-Oct-20 00:59 036 13.9
2014-Oct-20 00:49 036 13.9
2014-Oct-20 00:39 036 13.9
2014-Oct-20 00:29 036 13.9
2014-Oct-20 00:19 036 13.9
2014-Oct-20 00:09 036 13.9
2014-Oct-19 23:59 036 13.9
2014-Oct-19 23:50 036 13.9
2014-Oct-19 23:39 036 13.9
2014-Oct-19 23:29 036 13.9
2014-Oct-19 23:19 036 14.4
2014-Oct-19 23:09 036 14.4
2014-Oct-19 22:59 036 14.4
2014-Oct-19 22:49 036 15.0
2014-Oct-19 22:39 036 15.0
2014-Oct-19 22:29 036 15.0
2014-Oct-19 22:19 036 15.0
2014-Oct-19 22:09 036 15.0
2014-Oct-19 21:59 036 15.0
2014-Oct-19 21:49 036 15.0
2014-Oct-19 21:39 036 15.0
2014-Oct-19 21:19 036 15.0
2014-Oct-19 21:09 036 15.0
2014-Oct-19 20:59 036 15.6
2014-Oct-19 20:49 036 15.6
2014-Oct-19 20:39 355 15.6
2014-Oct-19 20:29 355 16.1
2014-Oct-19 20:09 355 17.8
2014-Oct-19 19:59 355 17.8
2014-Oct-19 19:49 355 0 gusting 3 17.8
2014-Oct-19 19:39 360 0 gusting 3 17.8
2014-Oct-19 19:29 005 17.8
2014-Oct-19 19:19 005 17.8
2014-Oct-19 19:09 005 0 gusting 1 17.8
2014-Oct-19 18:59 183 17.8
2014-Oct-19 18:49 183 17.8
2014-Oct-19 18:39 183 18.3
2014-Oct-19 18:29 183 18.9
2014-Oct-19 18:19 183 18.9
2014-Oct-19 18:09 183 19.4
2014-Oct-19 17:59 183 19.4
2014-Oct-19 17:49 183 20.0
2014-Oct-19 17:39 183 20.6
2014-Oct-19 17:29 183 21.1
2014-Oct-19 17:19 183 21.1
2014-Oct-19 17:09 183 21.7
2014-Oct-19 16:59 183 21.7
2014-Oct-19 16:49 183 22.2
2014-Oct-19 16:39 183 21.7
2014-Oct-19 16:29 183 22.2
2014-Oct-19 16:19 183 22.2
2014-Oct-19 16:09 183 22.2
2014-Oct-19 15:59 183 22.2
2014-Oct-19 15:49 183 22.2
2014-Oct-19 15:39 183 22.2
2014-Oct-19 15:29 183 22.8
2014-Oct-19 15:19 183 22.8
2014-Oct-19 15:09 183 22.8
2014-Oct-19 14:59 184 22.8
2014-Oct-19 14:49 153 22.8
2014-Oct-19 14:39 102 22.8
2014-Oct-19 14:29 197 22.8
2014-Oct-19 14:19 168 22.8
2014-Oct-19 14:09 180 0 gusting 3 22.8
2014-Oct-19 13:59 192 22.8
2014-Oct-19 13:49 092 22.2
2014-Oct-19 13:39 185 22.8
2014-Oct-19 13:29 107 22.2
2014-Oct-19 13:19 106 22.8
2014-Oct-19 13:09 111 0 gusting 2 22.8
2014-Oct-19 12:59 175 22.8
2014-Oct-19 12:49 129 22.2
2014-Oct-19 12:39 167 22.2
2014-Oct-19 12:29 169 22.2
2014-Oct-19 12:19 105 21.7
2014-Oct-19 12:09 114 21.7
2014-Oct-19 11:59 123 21.1
2014-Oct-19 11:49 116 21.1
2014-Oct-19 11:39 105 21.1
2014-Oct-19 11:29 063 20.6
2014-Oct-19 11:19 063 20.6
2014-Oct-19 11:09 072 20.6
2014-Oct-19 10:59 073 20.0
2014-Oct-19 10:49 073 20.0
2014-Oct-19 10:39 087 20.0
2014-Oct-19 10:29 067 20.0
2014-Oct-19 10:19 053 20.0
2014-Oct-19 09:59 053 19.4
2014-Oct-19 09:49 355 18.9
2014-Oct-19 09:39 355 18.9
2014-Oct-19 09:29 355 17.8
2014-Oct-19 09:19 355 17.2
2014-Oct-19 09:09 355 17.8
2014-Oct-19 08:59 355 18.3
2014-Oct-19 08:49 355 17.8
2014-Oct-19 08:39 355 16.1
2014-Oct-19 08:29 355 16.1
2014-Oct-19 08:19 355 15.6
2014-Oct-19 08:09 355 15.0
2014-Oct-19 07:59 355 13.9
2014-Oct-19 07:49 355 13.3
2014-Oct-19 07:39 355 13.3
2014-Oct-19 07:29 355 13.3
2014-Oct-19 07:19 355 13.3
2014-Oct-19 07:09 355 13.9
2014-Oct-19 06:59 355 13.9
2014-Oct-19 06:49 355 284 gusting 284 13.9
2014-Oct-19 06:39 355 13.9
2014-Oct-19 06:29 355 13.3
2014-Oct-19 06:19 355 13.3
2014-Oct-19 06:09 355 13.3
2014-Oct-19 05:59 355 13.3
2014-Oct-19 05:49 355 13.3
2014-Oct-19 05:39 342 13.3
2014-Oct-19 05:29 342 13.3
2014-Oct-19 05:19 342 13.3
2014-Oct-19 05:09 342 13.3
2014-Oct-19 04:59 342 13.3
2014-Oct-19 04:50 342 13.3
2014-Oct-19 04:39 342 13.3
2014-Oct-19 04:29 342 13.3
2014-Oct-19 04:19 342 13.9
2014-Oct-19 04:09 342 13.9
2014-Oct-19 03:59 342 13.9
2014-Oct-19 03:49 342 13.3
2014-Oct-19 03:39 342 13.3
2014-Oct-19 03:29 342 13.3
2014-Oct-19 03:19 342 13.3
2014-Oct-19 03:09 342 13.3
2014-Oct-19 02:59 063 13.3
2014-Oct-19 02:49 063 13.3
2014-Oct-19 02:39 063 13.3
2014-Oct-19 02:29 072 13.3
2014-Oct-19 02:19 072 13.3
2014-Oct-19 02:09 072 13.9
2014-Oct-19 01:59 072 13.9
2014-Oct-19 01:49 355 13.9
2014-Oct-19 01:39 355 13.9
2014-Oct-19 01:29 355 13.9
2014-Oct-19 01:19 009 2 gusting 5 12.8
2014-Oct-19 01:09 360 12.8
2014-Oct-19 00:59 360 13.3
2014-Oct-19 00:49 360 13.3
2014-Oct-19 00:39 360 13.3
2014-Oct-19 00:29 360 13.3
2014-Oct-19 00:19 360 13.9
2014-Oct-19 00:09 360 14.4
2014-Oct-18 23:59 360 14.4
2014-Oct-18 23:49 360 13.9
2014-Oct-18 23:39 360 13.9
2014-Oct-18 23:29 360 13.3
2014-Oct-18 23:19 360 13.3
2014-Oct-18 23:09 005 13.9
2014-Oct-18 22:59 005 13.9
2014-Oct-18 22:49 005 13.9
2014-Oct-18 22:39 005 14.4
2014-Oct-18 22:29 005 14.4
2014-Oct-18 22:19 005 14.4
2014-Oct-18 22:09 005 15.0
2014-Oct-18 21:59 005 15.0
2014-Oct-18 21:49 005 15.0
2014-Oct-18 21:39 005 15.0
2014-Oct-18 21:29 005 15.0
2014-Oct-18 21:09 005 15.0
2014-Oct-18 20:59 005 15.6
2014-Oct-18 20:49 005 15.6
2014-Oct-18 20:39 005 15.6
2014-Oct-18 20:29 005 16.1
2014-Oct-18 20:19 005 16.1
2014-Oct-18 20:09 005 16.1
2014-Oct-18 19:59 005 16.1
2014-Oct-18 19:49 005 16.1
2014-Oct-18 19:29 360 0 gusting 3 16.1
2014-Oct-18 19:19 180 16.1
2014-Oct-18 19:09 180 16.1
2014-Oct-18 18:59 180 16.7
2014-Oct-18 18:49 180 16.7
2014-Oct-18 18:39 180 16.7
2014-Oct-18 18:29 180 17.2
2014-Oct-18 18:19 180 17.2
2014-Oct-18 18:09 180 17.8
2014-Oct-18 17:59 180 18.3
2014-Oct-18 17:49 180 18.9
2014-Oct-18 17:39 180 19.4
2014-Oct-18 17:29 180 20.0
2014-Oct-18 17:19 180 20.0
2014-Oct-18 17:09 180 20.6
2014-Oct-18 16:59 180 20.6
2014-Oct-18 16:49 180 20.6
2014-Oct-18 16:39 180 20.6
2014-Oct-18 16:29 180 20.6
2014-Oct-18 16:19 180 20.6
2014-Oct-18 16:09 180 21.1
2014-Oct-18 15:59 180 21.1
2014-Oct-18 15:49 180 20.6
2014-Oct-18 15:39 180 21.1
2014-Oct-18 15:29 179 0 gusting 4 21.7
2014-Oct-18 15:20 192 0 gusting 5 21.1
2014-Oct-18 15:09 162 0 gusting 3 21.1
2014-Oct-18 14:59 113 21.1
2014-Oct-18 14:49 216 21.7
2014-Oct-18 14:39 178 21.1
2014-Oct-18 14:29 178 21.1
2014-Oct-18 14:19 186 21.1
2014-Oct-18 14:09 132 21.1
2014-Oct-18 13:59 179 0 gusting 3 21.1
2014-Oct-18 13:49 194 21.1
2014-Oct-18 13:39 194 20.6
2014-Oct-18 13:29 171 1 gusting 5 20.6
2014-Oct-18 13:19 150 0 gusting 4 20.6
2014-Oct-18 13:09 177 20.6